START_TIME,STEP,MOV.,P11,t_acc.,P23,t_acc.,P27,t_acc.,A4,t_acc.
1981-08-24 03:00:24.190 ,7,0,0.,4.8,0.,4.8,0.,4.8,0.,4.8
1981-08-24 03:00:28.990 ,7,0,0.,4.8,0.,4.8,0.,4.8,0.,4.8
1981-08-24 03:00:33.790 ,7,0,0.,4.8,0.,4.8,0.,4.8,0.,4.8
1981-08-24 03:00:38.590 ,7,0,0.,4.8,0.,4.8,0.,4.8,0.,4.8
1981-08-24 03:00:43.390 ,7,0,0.,4.8,0.,4.8,0.,4.8,0.,4.8
1981-08-24 03:00:48.190 ,7,0,0.,4.8,0.,4.8,0.,4.8,0.,4.8
1981-08-24 03:00:52.990 ,7,0,0.,4.8,0.,4.8,0.,4.8,0.,4.8
1981-08-24 03:00:57.790 ,7,0,0.,4.8,0.,4.8,0.,4.8,0.,4.8
1981-08-24 03:01:02.590 ,7,0,0.,4.8,0.,4.8,0.,4.8,0.,4.8
1981-08-24 03:01:07.390 ,7,0,0.,4.8,0.,4.8,0.,4.8,0.,4.8
1981-08-24 03:01:12.190 ,7,0,0.,4.8,0.,4.8,0.,4.8,0.,4.8
1981-08-24 03:01:16.990 ,7,0,0.,4.8,0.,4.8,0.,4.8,0.,4.8
1981-08-24 03:01:21.790 ,7,0,0.,4.8,0.,4.8,0.,4.8,0.,4.8
1981-08-24 03:01:26.590 ,7,0,0.,4.8,0.,4.8,0.,4.8,0.,4.8
1981-08-24 03:01:31.390 ,7,0,0.,4.8,0.,4.8,0.,4.8,0.,4.8
1981-08-24 03:01:36.190 ,6,0,0.,4.8,0.,4.8,0.,4.8,0.,4.8
1981-08-24 03:01:40.990 ,6,0,0.,4.8,0.,4.8,0.,4.8,0.,4.8
1981-08-24 03:01:45.790 ,6,0,0.,4.8,0.,4.8,0.,4.8,0.,4.8
1981-08-24 03:01:50.590 ,6,0,0.,4.8,0.,4.8,0.,4.8,0.,4.8
1981-08-24 03:01:55.390 ,6,0,0.,4.8,0.,4.8,0.,4.8,0.,4.8
1981-08-24 03:02:00.190 ,6,0,0.,4.8,0.,4.8,0.,4.8,0.,4.8
1981-08-24 03:02:04.990 ,6,0,0.,4.8,0.,4.8,0.,4.8,0.,4.8
1981-08-24 03:02:09.790 ,6,0,0.,4.8,0.,4.8,0.,4.8,0.,4.8
1981-08-24 03:02:14.590 ,6,0,0.,4.8,0.,4.8,0.,4.8,0.,4.8
1981-08-24 03:02:19.390 ,6,0,0.,4.8,0.,4.8,0.,4.8,0.,4.8
1981-08-24 03:02:24.190 ,5,0,0.,4.8,0.,4.8,0.,4.8,0.,4.8
1981-08-24 03:02:28.990 ,5,0,0.,4.8,0.,4.8,0.,4.8,0.,4.8
1981-08-24 03:02:33.790 ,5,0,0.,4.8,0.,4.8,0.,4.8,0.,4.8
1981-08-24 03:02:38.590 ,5,0,0.,4.8,0.,4.8,0.,4.8,0.,4.8
1981-08-24 03:02:43.390 ,5,0,0.,4.8,0.,4.8,0.,4.8,0.,4.8
1981-08-24 03:02:48.190 ,5,0,0.,4.8,0.,4.8,0.,4.8,0.,4.8
1981-08-24 03:02:52.990 ,5,0,0.,4.8,0.,4.8,0.,4.8,0.,4.8
1981-08-24 03:02:57.790 ,5,0,0.,4.8,0.,4.8,0.,4.8,0.,4.8
1981-08-24 03:03:02.590 ,5,0,0.,4.8,0.,4.8,0.,4.8,0.,4.8
1981-08-24 03:03:07.390 ,5,0,0.,4.8,0.,4.8,0.,4.8,0.,4.8
1981-08-24 03:03:12.190 ,4,0,0.,4.8,0.,4.8,0.,4.8,0.,4.8
1981-08-24 03:03:16.990 ,4,0,0.,4.8,0.,4.8,0.,4.8,0.,4.8
1981-08-24 03:03:21.790 ,4,0,0.,4.8,0.,4.8,0.,4.8,0.,4.8
1981-08-24 03:03:26.590 ,4,0,0.,4.8,0.,4.8,0.,4.8,0.,4.8
1981-08-24 03:03:31.390 ,4,0,0.,4.8,0.,4.8,0.,4.8,0.,4.8
1981-08-24 03:03:36.190 ,4,0,0.,4.8,0.,4.8,0.,4.8,0.,4.8
1981-08-24 03:03:40.990 ,4,0,0.,4.8,0.,4.8,0.,4.8,0.,4.8
1981-08-24 03:03:45.790 ,4,0,0.,4.8,0.,4.8,0.,4.8,0.,4.8
1981-08-24 03:03:50.590 ,4,0,0.,4.8,0.,4.8,0.,4.8,0.,4.8
1981-08-24 03:03:55.390 ,4,0,0.,4.8,0.,4.8,0.,4.8,0.,4.8
1981-08-24 03:04:00.190 ,3,0,0.,4.8,0.,4.8,0.,4.8,0.,4.8
1981-08-24 03:04:04.990 ,3,0,0.,4.8,0.,4.8,0.,4.8,0.,4.8
1981-08-24 03:04:09.790 ,3,0,0.,4.8,0.,4.8,0.,4.8,0.,4.8
1981-08-24 03:04:14.590 ,3,0,0.,4.8,0.,4.8,0.,4.8,0.,4.8
1981-08-24 03:04:19.390 ,3,0,0.,4.8,0.,4.8,0.,4.8,0.,4.8
1981-08-24 03:04:24.190 ,3,0,0.,4.8,0.,4.8,0.,4.8,0.,4.8
1981-08-24 03:04:28.990 ,3,0,0.,4.8,0.,4.8,0.,4.8,0.,4.8
1981-08-24 03:04:33.790 ,3,0,0.,4.8,0.,4.8,0.,4.8,0.,4.8
1981-08-24 03:04:38.590 ,3,0,0.,4.8,0.,4.8,0.,4.8,0.,4.8
1981-08-24 03:04:43.390 ,3,0,0.,4.8,0.,4.8,0.,4.8,0.,4.8
1981-08-24 03:04:48.190 ,2,0,0.,4.8,0.,4.8,0.,4.8,0.,4.8
1981-08-24 03:04:52.990 ,2,0,0.,4.8,0.,4.8,0.,4.8,0.,4.8
1981-08-24 03:04:57.790 ,2,0,0.,4.8,0.,4.8,0.,4.8,0.,4.8
1981-08-24 03:05:02.590 ,2,0,0.,4.8,0.,4.8,0.,4.8,0.,4.8
1981-08-24 03:05:07.390 ,2,0,0.,4.8,0.,4.8,0.,4.8,0.,4.8
1981-08-24 03:05:12.190 ,2,0,0.,4.8,0.,4.8,0.,4.8,0.,4.8
1981-08-24 03:05:16.990 ,2,0,0.,4.8,0.,4.8,0.,4.8,0.,4.8
1981-08-24 03:05:21.790 ,2,0,0.,4.8,0.,4.8,0.,4.8,0.,4.8
1981-08-24 03:05:26.590 ,2,0,0.,4.8,0.,4.8,0.,4.8,0.,4.8
1981-08-24 03:05:31.390 ,2,0,0.,4.8,0.,4.8,0.,4.8,0.,4.8
1981-08-24 03:05:36.190 ,1,0,0.,4.8,0.,4.8,0.,4.8,0.,4.8
1981-08-24 03:05:40.990 ,1,0,0.,4.8,0.,4.8,0.,4.8,0.,4.8
1981-08-24 03:05:45.790 ,1,0,0.,4.8,0.,4.8,0.,4.8,0.,4.8
1981-08-24 03:05:50.590 ,1,0,0.,4.8,0.,4.8,0.,4.8,0.,4.8
1981-08-24 03:05:55.390 ,1,0,0.,4.8,0.,4.8,0.,4.8,0.,4.8
1981-08-24 03:06:00.190 ,1,0,0.,4.8,0.,4.8,0.,4.8,0.,4.8
1981-08-24 03:06:04.990 ,1,0,0.,4.8,0.,4.8,0.,4.8,0.,4.8
1981-08-24 03:06:09.790 ,1,0,0.,4.8,0.,4.8,0.,4.8,0.,4.8
1981-08-24 03:06:14.590 ,1,0,0.,4.8,0.,4.8,0.,4.8,0.,4.8
1981-08-24 03:06:19.390 ,1,0,0.,4.8,0.,4.8,0.,4.8,0.,4.8
1981-08-24 03:06:24.190 ,0,0,0.,4.8,0.,4.8,0.,4.8,0.,4.8
1981-08-24 03:06:28.990 ,0,0,0.,4.8,0.,4.8,0.,4.8,0.,4.8
1981-08-24 03:06:33.790 ,0,0,0.,4.8,0.,4.8,0.,4.8,0.,4.8
1981-08-24 03:06:38.590 ,0,0,0.,4.8,0.,4.8,0.,4.8,0.,4.8
1981-08-24 03:06:43.390 ,0,0,0.,4.8,0.,4.8,0.,4.8,0.,4.8
1981-08-24 03:06:48.190 ,0,0,0.,4.8,0.,4.8,0.,4.8,0.,4.8
1981-08-24 03:06:52.990 ,0,0,0.,4.8,0.,4.8,0.,4.8,0.,4.8
1981-08-24 03:06:57.790 ,0,0,0.,4.8,0.,4.8,0.,4.8,0.,4.8
1981-08-24 03:07:02.590 ,0,0,0.,4.8,0.,4.8,0.,4.8,0.,4.8
1981-08-24 03:07:07.390 ,0,0,0.,4.8,0.,4.8,0.,4.8,0.,4.8
1981-08-24 03:07:12.190 ,0,0,0.,4.8,0.,4.8,0.,4.8,0.,4.8
1981-08-24 03:07:16.990 ,0,0,0.,4.8,0.,4.8,0.,4.8,0.,4.8
1981-08-24 03:07:21.790 ,0,0,0.,4.8,0.,4.8,0.,4.8,0.,4.8
1981-08-24 03:07:26.590 ,0,0,0.,4.8,0.,4.8,0.,4.8,0.,4.8
1981-08-24 03:07:31.390 ,0,0,0.,4.8,0.,4.8,0.,4.8,0.,4.8
1981-08-24 03:07:36.190 ,0,0,0.,4.8,0.,4.8,0.,4.8,0.,4.8
1981-08-24 03:07:40.990 ,0,0,0.,4.8,0.,4.8,0.,4.8,0.,4.8
1981-08-24 03:07:45.790 ,0,0,0.,4.8,0.,4.8,0.,4.8,0.,4.8
1981-08-24 03:07:50.590 ,0,0,0.,4.8,0.,4.8,0.,4.8,0.,4.8
1981-08-24 03:07:55.390 ,0,0,0.,4.8,0.,4.8,0.,4.8,0.,4.8
1981-08-24 03:08:00.190 ,1,0,0.,4.8,0.,4.8,0.,4.8,0.,4.8
1981-08-24 03:08:04.990 ,1,0,0.,4.8,0.,4.8,0.,4.8,0.,4.8
1981-08-24 03:08:09.790 ,1,0,0.,4.8,0.,4.8,0.,4.8,0.,4.8
1981-08-24 03:08:14.590 ,1,0,0.,4.8,0.,4.8,0.,4.8,0.,4.8
1981-08-24 03:08:19.390 ,1,0,0.,4.8,0.,4.8,0.,4.8,0.,4.8
1981-08-24 03:08:24.190 ,1,0,0.,4.8,0.,4.8,0.,4.8,0.,4.8
1981-08-24 03:08:28.990 ,1,0,0.,4.8,0.,4.8,0.,4.8,0.,4.8
1981-08-24 03:08:33.790 ,1,0,0.,4.8,0.,4.8,0.,4.8,0.,4.8
1981-08-24 03:08:38.590 ,1,0,0.,4.8,0.,4.8,0.,4.8,0.,4.8
1981-08-24 03:08:43.390 ,1,0,0.,4.8,0.,4.8,0.,4.8,0.,4.8
1981-08-24 03:08:48.190 ,2,0,0.,4.8,0.,4.8,0.,4.8,0.,4.8
1981-08-24 03:08:52.990 ,2,0,0.,4.8,0.,4.8,0.,4.8,0.,4.8
1981-08-24 03:08:57.790 ,2,0,0.,4.8,0.,4.8,0.,4.8,0.,4.8
1981-08-24 03:09:02.590 ,2,0,0.,4.8,0.,4.8,0.,4.8,0.,4.8
1981-08-24 03:09:07.390 ,2,0,0.,4.8,0.,4.8,0.,4.8,0.,4.8
1981-08-24 03:09:12.190 ,2,0,0.,4.8,0.,4.8,0.,4.8,0.,4.8
1981-08-24 03:09:16.990 ,2,0,0.,4.8,0.,4.8,0.,4.8,0.,4.8
1981-08-24 03:09:21.790 ,2,0,0.,4.8,0.,4.8,0.,4.8,0.,4.8
1981-08-24 03:09:26.590 ,2,0,0.,4.8,0.,4.8,0.,4.8,0.,4.8
1981-08-24 03:09:31.390 ,2,0,0.,4.8,0.,4.8,0.,4.8,0.,4.8
1981-08-24 03:09:36.190 ,3,0,0.,4.8,0.,4.8,0.,4.8,0.,4.8
1981-08-24 03:09:40.990 ,3,0,0.,4.8,0.,4.8,0.,4.8,0.,4.8
1981-08-24 03:09:45.790 ,3,0,0.,4.8,0.,4.8,0.,4.8,0.,4.8
1981-08-24 03:09:50.590 ,3,0,0.,4.8,0.,4.8,0.,4.8,0.,4.8
1981-08-24 03:09:55.390 ,3,0,0.,4.8,0.,4.8,0.,4.8,0.,4.8
1981-08-24 03:10:00.190 ,3,0,0.,4.8,0.,4.8,0.,4.8,0.,4.8
1981-08-24 03:10:04.990 ,3,0,0.,4.8,0.,4.8,0.,4.8,0.,4.8
1981-08-24 03:10:09.790 ,3,0,0.,4.8,0.,4.8,0.,4.8,0.,4.8
1981-08-24 03:10:14.590 ,3,0,0.,4.8,0.,4.8,0.,4.8,0.,4.8
1981-08-24 03:10:19.390 ,3,0,0.,4.8,0.,4.8,0.,4.8,0.,4.8
1981-08-24 03:10:24.190 ,4,0,0.,4.8,0.,4.8,0.,4.8,0.,4.8
1981-08-24 03:10:28.990 ,4,0,0.,4.8,0.,4.8,0.,4.8,0.,4.8
1981-08-24 03:10:33.790 ,4,0,0.,4.8,0.,4.8,0.,4.8,0.,4.8
1981-08-24 03:10:38.590 ,4,0,0.,4.8,0.,4.8,0.,4.8,0.,4.8
1981-08-24 03:10:43.390 ,4,0,0.,4.8,0.,4.8,0.,4.8,0.,4.8
1981-08-24 03:10:48.190 ,4,0,0.,4.8,0.,4.8,0.,4.8,0.,4.8
1981-08-24 03:10:52.990 ,4,0,0.,4.8,0.,4.8,0.,4.8,0.,4.8
1981-08-24 03:10:57.790 ,4,0,0.,4.8,0.,4.8,0.,4.8,0.,4.8
1981-08-24 03:11:02.590 ,4,0,0.,4.8,0.,4.8,0.,4.8,0.,4.8
1981-08-24 03:11:07.390 ,4,0,0.,4.8,0.,4.8,0.,4.8,0.,4.8
1981-08-24 03:11:12.190 ,5,0,0.,4.8,0.,4.8,0.,4.8,0.,4.8
1981-08-24 03:11:16.990 ,5,0,0.,4.8,0.,4.8,0.,4.8,0.,4.8
1981-08-24 03:11:21.790 ,5,0,0.,4.8,0.,4.8,0.,4.8,0.,4.8
1981-08-24 03:11:26.590 ,5,0,0.,4.8,0.,4.8,0.,4.8,0.,4.8
1981-08-24 03:11:31.390 ,5,0,0.,4.8,0.,4.8,0.,4.8,0.,4.8
1981-08-24 03:11:36.190 ,5,0,0.,4.8,0.,4.8,0.,4.8,0.,4.8
1981-08-24 03:11:40.990 ,5,0,0.,4.8,0.,4.8,0.,4.8,0.,4.8
1981-08-24 03:11:45.790 ,5,0,0.,4.8,0.,4.8,0.,4.8,0.,4.8
1981-08-24 03:11:50.590 ,5,0,0.,4.8,0.,4.8,0.,4.8,0.,4.8
1981-08-24 03:11:55.390 ,5,0,0.,4.8,0.,4.8,0.,4.8,0.,4.8
1981-08-24 03:12:00.190 ,6,0,0.,4.8,0.,4.8,0.,4.8,0.,4.8
1981-08-24 03:12:04.990 ,6,0,0.,4.8,0.,4.8,0.,4.8,0.,4.8
1981-08-24 03:12:09.790 ,6,0,0.,4.8,0.,4.8,0.,4.8,0.,4.8
1981-08-24 03:12:14.590 ,6,0,0.,4.8,0.,4.8,0.,4.8,0.,4.8
1981-08-24 03:12:19.390 ,6,0,0.,4.8,0.,4.8,0.,4.8,0.,4.8
1981-08-24 03:12:24.190 ,6,0,0.,4.8,0.,4.8,0.,4.8,0.,4.8
1981-08-24 03:12:28.990 ,6,0,0.,4.8,0.,4.8,0.,4.8,0.,4.8
1981-08-24 03:12:33.790 ,6,0,0.,4.8,0.,4.8,0.,4.8,0.,4.8
1981-08-24 03:12:38.590 ,6,0,0.,4.8,0.,4.8,0.,4.8,0.,4.8
1981-08-24 03:12:43.390 ,6,0,0.,4.8,0.,4.8,0.,4.8,0.,4.8
1981-08-24 03:12:48.190 ,7,0,0.,4.8,0.,4.8,0.,4.8,0.,4.8
1981-08-24 03:12:52.990 ,7,0,0.,4.8,0.,4.8,0.,4.8,0.,4.8
1981-08-24 03:12:57.790 ,7,0,0.,4.8,0.,4.8,0.,4.8,0.,4.8
1981-08-24 03:13:02.590 ,7,0,0.,4.8,0.,4.8,0.,4.8,0.,4.8
1981-08-24 03:13:07.390 ,7,0,0.,4.8,0.,4.8,0.,4.8,0.,4.8
1981-08-24 03:13:12.190 ,7,0,0.,4.8,0.,4.8,0.,4.8,0.,4.8
1981-08-24 03:13:16.990 ,7,0,0.,4.8,0.,4.8,0.,4.8,0.,4.8
1981-08-24 03:13:21.790 ,7,0,0.,4.8,0.,4.8,0.,4.8,0.,4.8
1981-08-24 03:13:26.590 ,7,0,0.,4.8,0.,4.8,0.,4.8,0.,4.8
1981-08-24 03:13:31.390 ,7,0,0.,4.8,0.,4.8,0.,4.8,0.,4.8
1981-08-24 03:13:36.190 ,7,0,0.,4.8,0.,4.8,0.,4.8,0.,4.8
1981-08-24 03:13:40.990 ,7,0,0.,4.8,0.,4.8,0.,4.8,0.,4.8
1981-08-24 03:13:45.790 ,7,0,0.,4.8,0.,4.8,0.,4.8,0.,4.8
1981-08-24 03:13:50.590 ,7,0,0.,4.8,0.,4.8,0.,4.8,0.,4.8
1981-08-24 03:13:55.390 ,7,0,0.,4.8,0.,4.8,0.,4.8,0.,4.8
1981-08-24 03:14:00.190 ,6,0,0.,4.8,0.,4.8,0.,4.8,0.,4.8
1981-08-24 03:14:04.990 ,6,0,0.,4.8,0.,4.8,0.,4.8,0.,4.8
1981-08-24 03:14:09.790 ,6,0,0.,4.8,0.,4.8,0.,4.8,0.,4.8
1981-08-24 03:14:14.590 ,6,0,0.,4.8,0.,4.8,0.,4.8,0.,4.8
1981-08-24 03:14:19.390 ,6,0,0.,4.8,0.,4.8,0.,4.8,0.,4.8
1981-08-24 03:14:24.190 ,5,0,0.,4.8,0.,4.8,0.,4.8,0.,4.8
1981-08-24 03:14:28.990 ,5,0,0.,4.8,0.,4.8,0.,4.8,0.,4.8
1981-08-24 03:14:33.790 ,5,0,0.,4.8,0.,4.8,0.,4.8,0.,4.8
1981-08-24 03:14:38.590 ,5,0,0.,4.8,0.,4.8,0.,4.8,0.,4.8
1981-08-24 03:14:43.390 ,5,0,0.,4.8,0.,4.8,0.,4.8,0.,4.8
1981-08-24 03:14:48.190 ,4,0,0.,4.8,0.,4.8,0.,4.8,0.,4.8
1981-08-24 03:14:52.990 ,4,0,0.,4.8,0.,4.8,0.,4.8,0.,4.8
1981-08-24 03:14:57.790 ,4,0,0.,4.8,0.,4.8,0.,4.8,0.,4.8
1981-08-24 03:15:02.590 ,4,0,0.,4.8,0.,4.8,0.,4.8,0.,4.8
1981-08-24 03:15:07.390 ,4,0,0.,4.8,0.,4.8,0.,4.8,0.,4.8
1981-08-24 03:15:12.190 ,3,0,0.,4.8,0.,4.8,0.,4.8,0.,4.8
1981-08-24 03:15:16.990 ,3,0,0.,4.8,0.,4.8,0.,4.8,0.,4.8
1981-08-24 03:15:21.790 ,3,0,0.,4.8,0.,4.8,0.,4.8,0.,4.8
1981-08-24 03:15:26.590 ,3,0,0.,4.8,0.,4.8,0.,4.8,0.,4.8
1981-08-24 03:15:31.390 ,3,0,0.,4.8,0.,4.8,0.,4.8,0.,4.8
1981-08-24 03:15:36.190 ,2,0,0.,4.8,0.,4.8,0.,4.8,0.,4.8
1981-08-24 03:15:40.990 ,2,0,0.,4.8,0.,4.8,0.,4.8,0.,4.8
1981-08-24 03:15:45.790 ,2,0,0.,4.8,0.,4.8,0.,4.8,0.,4.8
1981-08-24 03:15:50.590 ,2,0,0.,4.8,0.,4.8,0.,4.8,0.,4.8
1981-08-24 03:15:55.390 ,2,0,0.,4.8,0.,4.8,0.,4.8,0.,4.8
1981-08-24 03:16:00.190 ,1,0,0.,4.8,0.,4.8,0.,4.8,0.,4.8
1981-08-24 03:16:04.990 ,1,0,0.,4.8,0.,4.8,0.,4.8,0.,4.8
1981-08-24 03:16:09.790 ,1,0,0.,4.8,0.,4.8,0.,4.8,0.,4.8
1981-08-24 03:16:14.590 ,1,0,0.,4.8,0.,4.8,0.,4.8,0.,4.8
1981-08-24 03:16:19.390 ,1,0,0.,4.8,0.,4.8,0.,4.8,0.,4.8
1981-08-24 03:16:24.190 ,0,0,0.,4.8,0.,4.8,0.,4.8,0.,4.8
1981-08-24 03:16:28.990 ,0,0,0.,4.8,0.,4.8,0.,4.8,0.,4.8
1981-08-24 03:16:33.790 ,0,0,0.,4.8,0.,4.8,0.,4.8,0.,4.8
1981-08-24 03:16:38.590 ,0,0,0.,4.8,0.,4.8,0.,4.8,0.,4.8
1981-08-24 03:16:43.390 ,0,0,0.,4.8,0.,4.8,0.,4.8,0.,4.8
1981-08-24 03:16:48.180 ,0,0,0.,4.8,0.,4.8,0.,4.8,0.,4.8
1981-08-24 03:16:52.990 ,0,0,0.,4.8,0.,4.8,0.,4.8,0.,4.8
1981-08-24 03:16:57.790 ,0,0,0.,4.8,0.,4.8,0.,4.8,0.,4.8
1981-08-24 03:17:02.590 ,0,0,0.,4.8,0.,4.8,0.,4.8,0.,4.8
1981-08-24 03:17:07.390 ,0,0,0.,4.8,0.,4.8,0.,4.8,0.,4.8
1981-08-24 03:17:12.180 ,1,0,0.,4.8,0.,4.8,0.,4.8,0.,4.8
1981-08-24 03:17:16.980 ,1,0,0.,4.8,0.,4.8,0.,4.8,0.,4.8
1981-08-24 03:17:21.780 ,1,0,0.,4.8,0.,4.8,0.,4.8,0.,4.8
1981-08-24 03:17:26.580 ,1,0,0.,4.8,0.,4.8,0.,4.8,0.,4.8
1981-08-24 03:17:31.390 ,1,0,0.,4.8,0.,4.8,0.,4.8,0.,4.8
1981-08-24 03:17:36.180 ,2,0,0.,4.8,0.,4.8,0.,4.8,0.,4.8
1981-08-24 03:17:40.980 ,2,0,0.,4.8,0.,4.8,0.,4.8,0.,4.8
1981-08-24 03:17:45.780 ,2,0,0.,4.8,0.,4.8,0.,4.8,0.,4.8
1981-08-24 03:17:50.580 ,2,0,0.,4.8,0.,4.8,0.,4.8,0.,4.8
1981-08-24 03:17:55.390 ,2,0,0.,4.8,0.,4.8,0.,4.8,0.,4.8
1981-08-24 03:18:00.180 ,3,0,0.,4.8,0.,4.8,0.,4.8,0.,4.8
1981-08-24 03:18:04.980 ,3,0,0.,4.8,0.,4.8,0.,4.8,0.,4.8
1981-08-24 03:18:09.780 ,3,0,0.,4.8,0.,4.8,0.,4.8,0.,4.8
1981-08-24 03:18:14.580 ,3,0,0.,4.8,0.,4.8,0.,4.8,0.,4.8
1981-08-24 03:18:19.390 ,3,0,0.,4.8,0.,4.8,0.,4.8,0.,4.8
1981-08-24 03:18:24.180 ,4,0,0.,4.8,0.,4.8,0.,4.8,0.,4.8
1981-08-24 03:18:28.980 ,4,0,0.,4.8,0.,4.8,0.,4.8,0.,4.8
1981-08-24 03:18:33.780 ,4,0,0.,4.8,0.,4.8,0.,4.8,0.,4.8
1981-08-24 03:18:38.580 ,4,0,0.,4.8,0.,4.8,0.,4.8,0.,4.8
1981-08-24 03:18:43.390 ,4,0,0.,4.8,0.,4.8,0.,4.8,0.,4.8
1981-08-24 03:18:48.180 ,5,0,0.,4.8,0.,4.8,0.,4.8,0.,4.8
1981-08-24 03:18:52.980 ,5,0,0.,4.8,0.,4.8,0.,4.8,0.,4.8
1981-08-24 03:18:57.780 ,5,0,0.,4.8,0.,4.8,0.,4.8,0.,4.8
1981-08-24 03:19:02.580 ,5,0,0.,4.8,0.,4.8,0.,4.8,0.,4.8
1981-08-24 03:19:07.390 ,5,0,0.,4.8,0.,4.8,0.,4.8,0.,4.8
1981-08-24 03:19:12.180 ,6,0,0.,4.8,0.,4.8,0.,4.8,0.,4.8
1981-08-24 03:19:16.980 ,6,0,0.,4.8,0.,4.8,0.,4.8,0.,4.8
1981-08-24 03:19:21.780 ,6,0,0.,4.8,0.,4.8,0.,4.8,0.,4.8
1981-08-24 03:19:26.580 ,6,0,0.,4.8,0.,4.8,0.,4.8,0.,4.8
1981-08-24 03:19:31.390 ,6,0,0.,4.8,0.,4.8,0.,4.8,0.,4.8
1981-08-24 03:19:36.180 ,7,0,0.,4.8,0.,4.8,0.,4.8,0.,4.8
1981-08-24 03:19:40.980 ,7,0,0.,4.8,0.,4.8,0.,4.8,0.,4.8
1981-08-24 03:19:45.780 ,7,0,0.,4.8,0.,4.8,0.,4.8,0.,4.8
1981-08-24 03:19:50.580 ,7,0,0.,4.8,0.,4.8,0.,4.8,1.,4.8
1981-08-24 03:19:55.390 ,7,0,0.,4.8,0.,4.8,0.,4.8,0.,4.8
1981-08-24 03:20:00.180 ,7,0,0.,4.8,0.,4.8,0.,4.8,0.,4.8
1981-08-24 03:20:04.980 ,7,0,0.,4.8,0.,4.8,0.,4.8,0.,4.8
1981-08-24 03:20:09.780 ,7,0,0.,4.8,0.,4.8,0.,4.8,0.,4.8
1981-08-24 03:20:14.580 ,7,0,0.,4.8,0.,4.8,0.,4.8,0.,4.8
1981-08-24 03:20:19.390 ,7,0,0.,4.8,0.,4.8,0.,4.8,0.,4.8
1981-08-24 03:20:24.180 ,7,0,0.,4.8,0.,4.8,0.,4.8,0.,4.8
1981-08-24 03:20:28.980 ,7,0,0.,4.8,0.,4.8,0.,4.8,0.,4.8
1981-08-24 03:20:33.780 ,7,0,0.,4.8,0.,4.8,0.,4.8,0.,4.8
1981-08-24 03:20:38.580 ,7,0,0.,4.8,0.,4.8,0.,4.8,0.,4.8
1981-08-24 03:20:43.390 ,7,0,0.,4.8,0.,4.8,0.,4.8,0.,4.8
1981-08-24 03:20:48.180 ,6,0,0.,4.8,0.,4.8,0.,4.8,0.,4.8
1981-08-24 03:20:52.980 ,6,0,0.,4.8,0.,4.8,0.,4.8,0.,4.8
1981-08-24 03:20:57.780 ,6,0,0.,4.8,0.,4.8,0.,4.8,0.,4.8
1981-08-24 03:21:02.580 ,6,0,0.,4.8,0.,4.8,0.,4.8,0.,4.8
1981-08-24 03:21:07.390 ,6,0,0.,4.8,0.,4.8,0.,4.8,0.,4.8
1981-08-24 03:21:12.180 ,6,0,0.,4.8,0.,4.8,0.,4.8,0.,4.8
1981-08-24 03:21:16.980 ,6,0,0.,4.8,0.,4.8,0.,4.8,0.,4.8
1981-08-24 03:21:21.780 ,6,0,0.,4.8,0.,4.8,0.,4.8,0.,4.8
1981-08-24 03:21:26.580 ,6,0,0.,4.8,0.,4.8,0.,4.8,0.,4.8
1981-08-24 03:21:31.390 ,6,0,0.,4.8,0.,4.8,0.,4.8,0.,4.8
1981-08-24 03:21:36.180 ,5,0,0.,4.8,0.,4.8,0.,4.8,0.,4.8
1981-08-24 03:21:40.980 ,5,0,0.,4.8,0.,4.8,0.,4.8,0.,4.8
1981-08-24 03:21:45.780 ,5,0,0.,4.8,0.,4.8,0.,4.8,0.,4.8
1981-08-24 03:21:50.580 ,5,0,0.,4.8,0.,4.8,0.,4.8,0.,4.8
1981-08-24 03:21:55.390 ,5,0,0.,4.8,0.,4.8,0.,4.8,0.,4.8
1981-08-24 03:22:00.180 ,5,0,0.,4.8,0.,4.8,0.,4.8,0.,4.8
1981-08-24 03:22:04.980 ,5,0,0.,4.8,0.,4.8,0.,4.8,0.,4.8
1981-08-24 03:22:09.780 ,5,0,0.,4.8,0.,4.8,0.,4.8,0.,4.8
1981-08-24 03:22:14.580 ,5,0,0.,4.8,0.,4.8,0.,4.8,0.,4.8
1981-08-24 03:22:19.390 ,5,0,0.,4.8,0.,4.8,0.,4.8,0.,4.8
1981-08-24 03:22:24.180 ,4,0,0.,4.8,0.,4.8,0.,4.8,0.,4.8
1981-08-24 03:22:28.980 ,4,0,0.,4.8,0.,4.8,0.,4.8,0.,4.8
1981-08-24 03:22:33.780 ,4,0,0.,4.8,0.,4.8,0.,4.8,0.,4.8
1981-08-24 03:22:38.580 ,4,0,0.,4.8,0.,4.8,0.,4.8,0.,4.8
1981-08-24 03:22:43.390 ,4,0,0.,4.8,0.,4.8,0.,4.8,0.,4.8
1981-08-24 03:22:48.180 ,4,0,0.,4.8,0.,4.8,0.,4.8,0.,4.8
1981-08-24 03:22:52.980 ,4,0,0.,4.8,0.,4.8,0.,4.8,0.,4.8
1981-08-24 03:22:57.780 ,4,0,0.,4.8,0.,4.8,0.,4.8,0.,4.8
1981-08-24 03:23:02.580 ,4,0,0.,4.8,0.,4.8,0.,4.8,0.,4.8
1981-08-24 03:23:07.390 ,4,0,0.,4.8,0.,4.8,0.,4.8,0.,4.8
1981-08-24 03:23:12.180 ,3,0,0.,4.8,0.,4.8,0.,4.8,0.,4.8
1981-08-24 03:23:16.980 ,3,0,0.,4.8,0.,4.8,0.,4.8,0.,4.8
1981-08-24 03:23:21.780 ,3,0,0.,4.8,0.,4.8,0.,4.8,0.,4.8
1981-08-24 03:23:26.580 ,3,0,0.,4.8,0.,4.8,0.,4.8,0.,4.8
1981-08-24 03:23:31.390 ,3,0,0.,4.8,0.,4.8,0.,4.8,0.,4.8
1981-08-24 03:23:36.180 ,3,0,0.,4.8,0.,4.8,0.,4.8,0.,4.8
1981-08-24 03:23:40.980 ,3,0,0.,4.8,0.,4.8,0.,4.8,0.,4.8
1981-08-24 03:23:45.780 ,3,0,0.,4.8,0.,4.8,0.,4.8,0.,4.8
1981-08-24 03:23:50.580 ,3,0,0.,4.8,0.,4.8,0.,4.8,0.,4.8
1981-08-24 03:23:55.390 ,3,0,0.,4.8,0.,4.8,0.,4.8,0.,4.8
1981-08-24 03:24:00.180 ,2,0,0.,4.8,0.,4.8,0.,4.8,0.,4.8
1981-08-24 03:24:04.980 ,2,0,0.,4.8,0.,4.8,0.,4.8,0.,4.8
1981-08-24 03:24:09.780 ,2,0,0.,4.8,0.,4.8,0.,4.8,0.,4.8
1981-08-24 03:24:14.580 ,2,0,0.,4.8,0.,4.8,0.,4.8,0.,4.8
1981-08-24 03:24:19.390 ,2,0,0.,4.8,0.,4.8,0.,4.8,0.,4.8
1981-08-24 03:24:24.180 ,2,0,0.,4.8,0.,4.8,0.,4.8,0.,4.8
1981-08-24 03:24:28.980 ,2,0,0.,4.8,0.,4.8,0.,4.8,0.,4.8
1981-08-24 03:24:33.780 ,2,0,0.,4.8,0.,4.8,0.,4.8,0.,4.8
1981-08-24 03:24:38.580 ,2,0,0.,4.8,0.,4.8,0.,4.8,0.,4.8
1981-08-24 03:24:43.390 ,2,0,0.,4.8,0.,4.8,0.,4.8,0.,4.8
1981-08-24 03:24:48.180 ,1,0,0.,4.8,0.,4.8,0.,4.8,0.,4.8
1981-08-24 03:24:52.980 ,1,0,0.,4.8,0.,4.8,0.,4.8,0.,4.8
1981-08-24 03:24:57.780 ,1,0,0.,4.8,0.,4.8,0.,4.8,0.,4.8
1981-08-24 03:25:02.580 ,1,0,0.,4.8,0.,4.8,0.,4.8,0.,4.8
1981-08-24 03:25:07.390 ,1,0,0.,4.8,0.,4.8,0.,4.8,0.,4.8
1981-08-24 03:25:12.180 ,1,0,0.,4.8,0.,4.8,0.,4.8,0.,4.8
1981-08-24 03:25:16.980 ,1,0,0.,4.8,0.,4.8,0.,4.8,0.,4.8
1981-08-24 03:25:21.780 ,1,0,0.,4.8,0.,4.8,0.,4.8,0.,4.8
1981-08-24 03:25:26.580 ,1,0,0.,4.8,0.,4.8,0.,4.8,0.,4.8
1981-08-24 03:25:31.390 ,1,0,0.,4.8,0.,4.8,0.,4.8,0.,4.8
1981-08-24 03:25:36.180 ,0,0,0.,4.8,0.,4.8,0.,4.8,0.,4.8
1981-08-24 03:25:40.980 ,0,0,0.,4.8,0.,4.8,0.,4.8,0.,4.8
1981-08-24 03:25:45.780 ,0,0,0.,4.8,0.,4.8,0.,4.8,0.,4.8
1981-08-24 03:25:50.580 ,0,0,0.,4.8,0.,4.8,0.,4.8,0.,4.8
1981-08-24 03:25:55.390 ,0,0,0.,4.8,0.,4.8,0.,4.8,0.,4.8
1981-08-24 03:26:00.180 ,0,0,0.,4.8,0.,4.8,0.,4.8,0.,4.8
1981-08-24 03:26:04.980 ,0,0,0.,4.8,0.,4.8,0.,4.8,0.,4.8
1981-08-24 03:26:09.780 ,0,0,0.,4.8,0.,4.8,0.,4.8,0.,4.8
1981-08-24 03:26:14.580 ,0,0,0.,4.8,0.,4.8,0.,4.8,0.,4.8
1981-08-24 03:26:19.390 ,0,0,0.,4.8,0.,4.8,0.,4.8,0.,4.8
1981-08-24 03:26:24.180 ,0,0,0.,4.8,0.,4.8,0.,4.8,0.,4.8
1981-08-24 03:26:28.980 ,0,0,0.,4.8,0.,4.8,0.,4.8,0.,4.8
1981-08-24 03:26:33.780 ,0,0,0.,4.8,0.,4.8,0.,4.8,0.,4.8
1981-08-24 03:26:38.580 ,0,0,0.,4.8,0.,4.8,0.,4.8,0.,4.8
1981-08-24 03:26:43.390 ,0,0,0.,4.8,0.,4.8,0.,4.8,0.,4.8
1981-08-24 03:26:48.180 ,0,0,0.,4.8,0.,4.8,0.,4.8,0.,4.8
1981-08-24 03:26:52.980 ,0,0,0.,4.8,0.,4.8,0.,4.8,0.,4.8
1981-08-24 03:26:57.780 ,0,0,0.,4.8,0.,4.8,0.,4.8,0.,4.8
1981-08-24 03:27:02.580 ,0,0,0.,4.8,0.,4.8,0.,4.8,0.,4.8
1981-08-24 03:27:07.390 ,0,0,0.,4.8,0.,4.8,0.,4.8,0.,4.8
1981-08-24 03:27:12.180 ,1,0,0.,4.8,0.,4.8,0.,4.8,0.,4.8
1981-08-24 03:27:16.980 ,1,0,0.,4.8,0.,4.8,0.,4.8,0.,4.8
1981-08-24 03:27:21.780 ,1,0,0.,4.8,0.,4.8,0.,4.8,0.,4.8
1981-08-24 03:27:26.580 ,1,0,0.,4.8,0.,4.8,0.,4.8,0.,4.8
1981-08-24 03:27:31.390 ,1,0,0.,4.8,0.,4.8,0.,4.8,0.,4.8
1981-08-24 03:27:36.180 ,1,0,0.,4.8,0.,4.8,0.,4.8,0.,4.8
1981-08-24 03:27:40.980 ,1,0,0.,4.8,0.,4.8,0.,4.8,0.,4.8
1981-08-24 03:27:45.780 ,1,0,0.,4.8,0.,4.8,0.,4.8,0.,4.8
1981-08-24 03:27:50.580 ,1,0,0.,4.8,0.,4.8,0.,4.8,0.,4.8
1981-08-24 03:27:55.390 ,1,0,0.,4.8,0.,4.8,0.,4.8,0.,4.8
1981-08-24 03:28:00.180 ,2,0,0.,4.8,0.,4.8,0.,4.8,0.,4.8
1981-08-24 03:28:04.980 ,2,0,0.,4.8,0.,4.8,0.,4.8,0.,4.8
1981-08-24 03:28:09.780 ,2,0,0.,4.8,0.,4.8,0.,4.8,0.,4.8
1981-08-24 03:28:14.580 ,2,0,0.,4.8,0.,4.8,0.,4.8,0.,4.8
1981-08-24 03:28:19.390 ,2,0,0.,4.8,0.,4.8,0.,4.8,0.,4.8
1981-08-24 03:28:24.180 ,2,0,0.,4.8,0.,4.8,0.,4.8,0.,4.8
1981-08-24 03:28:28.980 ,2,0,0.,4.8,0.,4.8,0.,4.8,0.,4.8
1981-08-24 03:28:33.780 ,2,0,0.,4.8,0.,4.8,0.,4.8,0.,4.8
1981-08-24 03:28:38.580 ,2,0,0.,4.8,0.,4.8,0.,4.8,0.,4.8
1981-08-24 03:28:43.390 ,2,0,0.,4.8,0.,4.8,0.,4.8,0.,4.8
1981-08-24 03:28:48.180 ,3,0,0.,4.8,0.,4.8,0.,4.8,0.,4.8
1981-08-24 03:28:52.980 ,3,0,0.,4.8,0.,4.8,0.,4.8,0.,4.8
1981-08-24 03:28:57.780 ,3,0,0.,4.8,0.,4.8,0.,4.8,0.,4.8
1981-08-24 03:29:02.580 ,3,0,0.,4.8,0.,4.8,0.,4.8,0.,4.8
1981-08-24 03:29:07.390 ,3,0,0.,4.8,0.,4.8,0.,4.8,0.,4.8
1981-08-24 03:29:12.180 ,3,0,0.,4.8,0.,4.8,0.,4.8,0.,4.8
1981-08-24 03:29:16.980 ,3,0,0.,4.8,0.,4.8,0.,4.8,0.,4.8
1981-08-24 03:29:21.780 ,3,0,0.,4.8,0.,4.8,0.,4.8,0.,4.8
1981-08-24 03:29:26.580 ,3,0,0.,4.8,0.,4.8,0.,4.8,0.,4.8
1981-08-24 03:29:31.390 ,3,0,0.,4.8,0.,4.8,0.,4.8,0.,4.8
1981-08-24 03:29:36.180 ,4,0,0.,4.8,0.,4.8,0.,4.8,0.,4.8
1981-08-24 03:29:40.980 ,4,0,0.,4.8,0.,4.8,0.,4.8,0.,4.8
1981-08-24 03:29:45.780 ,4,0,0.,4.8,0.,4.8,0.,4.8,0.,4.8
1981-08-24 03:29:50.580 ,4,0,0.,4.8,0.,4.8,0.,4.8,0.,4.8
1981-08-24 03:29:55.390 ,4,0,0.,4.8,0.,4.8,0.,4.8,0.,4.8
1981-08-24 03:30:00.180 ,4,0,0.,4.8,0.,4.8,0.,4.8,0.,4.8
1981-08-24 03:30:04.980 ,4,0,0.,4.8,0.,4.8,0.,4.8,0.,4.8
1981-08-24 03:30:09.780 ,4,0,0.,4.8,0.,4.8,0.,4.8,0.,4.8
1981-08-24 03:30:14.580 ,4,0,0.,4.8,0.,4.8,0.,4.8,0.,4.8
1981-08-24 03:30:19.390 ,4,0,0.,4.8,0.,4.8,0.,4.8,0.,4.8
1981-08-24 03:30:24.180 ,5,0,0.,4.8,0.,4.8,0.,4.8,0.,4.8
1981-08-24 03:30:28.980 ,5,0,0.,4.8,0.,4.8,0.,4.8,0.,4.8
1981-08-24 03:30:33.780 ,5,0,0.,4.8,0.,4.8,0.,4.8,0.,4.8
1981-08-24 03:30:38.580 ,5,0,0.,4.8,0.,4.8,0.,4.8,0.,4.8
1981-08-24 03:30:43.390 ,5,0,0.,4.8,0.,4.8,0.,4.8,0.,4.8
1981-08-24 03:30:48.180 ,5,0,0.,4.8,0.,4.8,0.,4.8,0.,4.8
1981-08-24 03:30:52.980 ,5,0,0.,4.8,0.,4.8,0.,4.8,0.,4.8
1981-08-24 03:30:57.780 ,5,0,0.,4.8,0.,4.8,0.,4.8,0.,4.8
1981-08-24 03:31:02.580 ,5,0,0.,4.8,0.,4.8,0.,4.8,0.,4.8
1981-08-24 03:31:07.390 ,5,0,0.,4.8,0.,4.8,0.,4.8,0.,4.8
1981-08-24 03:31:12.180 ,6,0,0.,4.8,0.,4.8,0.,4.8,0.,4.8
1981-08-24 03:31:16.980 ,6,0,0.,4.8,0.,4.8,0.,4.8,0.,4.8
1981-08-24 03:31:21.780 ,6,0,0.,4.8,0.,4.8,0.,4.8,0.,4.8
1981-08-24 03:31:26.580 ,6,0,0.,4.8,0.,4.8,0.,4.8,0.,4.8
1981-08-24 03:31:31.390 ,6,0,0.,4.8,0.,4.8,0.,4.8,0.,4.8
1981-08-24 03:31:36.180 ,6,0,0.,4.8,0.,4.8,0.,4.8,0.,4.8
1981-08-24 03:31:40.980 ,6,0,0.,4.8,0.,4.8,0.,4.8,0.,4.8
1981-08-24 03:31:45.780 ,6,0,0.,4.8,0.,4.8,0.,4.8,0.,4.8
1981-08-24 03:31:50.580 ,6,0,0.,4.8,0.,4.8,0.,4.8,0.,4.8
1981-08-24 03:31:55.390 ,6,0,0.,4.8,0.,4.8,0.,4.8,0.,4.8
1981-08-24 03:32:00.180 ,7,0,0.,4.8,0.,4.8,0.,4.8,0.,4.8
1981-08-24 03:32:04.980 ,7,0,0.,4.8,0.,4.8,0.,4.8,0.,4.8
1981-08-24 03:32:09.780 ,7,0,0.,4.8,0.,4.8,0.,4.8,0.,4.8
1981-08-24 03:32:14.580 ,7,0,0.,4.8,0.,4.8,0.,4.8,0.,4.8
1981-08-24 03:32:19.390 ,7,0,0.,4.8,0.,4.8,0.,4.8,0.,4.8
1981-08-24 03:32:24.180 ,7,0,0.,4.8,0.,4.8,0.,4.8,0.,4.8
1981-08-24 03:32:28.980 ,7,0,0.,4.8,0.,4.8,0.,4.8,0.,4.8
1981-08-24 03:32:33.780 ,7,0,0.,4.8,0.,4.8,0.,4.8,0.,4.8
1981-08-24 03:32:38.580 ,7,0,0.,4.8,0.,4.8,0.,4.8,0.,4.8
1981-08-24 03:32:43.390 ,7,0,0.,4.8,0.,4.8,0.,4.8,0.,4.8
1981-08-24 03:32:48.180 ,7,0,0.,4.8,0.,4.8,0.,4.8,0.,4.8
1981-08-24 03:32:52.980 ,7,0,0.,4.8,0.,4.8,0.,4.8,0.,4.8
1981-08-24 03:32:57.780 ,7,0,0.,4.8,0.,4.8,0.,4.8,0.,4.8
1981-08-24 03:33:02.580 ,7,0,0.,4.8,0.,4.8,0.,4.8,0.,4.8
1981-08-24 03:33:07.390 ,7,0,0.,4.8,0.,4.8,0.,4.8,0.,4.8
1981-08-24 03:33:12.180 ,6,0,0.,4.8,0.,4.8,0.,4.8,0.,4.8
1981-08-24 03:33:16.980 ,6,0,0.,4.8,0.,4.8,0.,4.8,0.,4.8